FW3572 Weather Reports


time (UTC)temp
C
wind
direction
speed
KPH
gust
KPH
rain 1hr
cm
rain 24hr
cm
rain mn
cm
humidity
%
barometer
mb
20260831163521 30 41 1.6 11.3 0.00 0.00 0.00 100 1018.7
20260831163030 30 116 3.2 11.3 0.00 0.00 0.00 100 1018.9
20260831162524 30 80 1.6 11.3 0.00 0.00 0.00 100 1018.9
20260831162019 30 117 1.6 6.4 0.00 0.00 0.00 100 1019.0
20260831161518 30 109 1.6 8.0 0.00 0.00 0.00 100 1019.1
20260831161023 30 18 1.6 11.3 0.00 0.00 0.00 100 1019.2
20260831160518 30 140 0.0 11.3 0.00 0.00 0.00 100 1019.2
20260831160021 30 64 0.0 12.9 0.00 0.00 0.00 100 1019.2
20260831155519 30 137 3.2 12.9 0.00 0.00 0.00 100 1019.3
20260831155019 30 87 0.0 9.7 0.00 0.00 0.00 100 1019.3
20260831154703 30 122 3.2 9.7 0.00 1.91 0.00 100 1019.4
20260831154017 30 94 1.6 8.0 0.00 1.91 0.00 100 1019.3
20260831153521 30 128 1.6 6.4 0.00 1.91 0.00 100 1019.4
20260831153024 30 55 1.6 6.4 0.00 1.91 0.00 100 1019.4
20260831152516 30 134 0.0 8.0 0.00 1.91 0.00 100 1019.3
20260831152020 30 109 3.2 8.0 0.00 1.91 0.00 100 1019.3
20260831151514 31 90 1.6 8.0 0.00 1.91 0.00 100 1019.3
20260831151013 30 355 1.6 8.0 0.00 1.91 0.00 100 1019.2
20260831150511 30 101 0.0 8.0 0.00 1.91 0.00 100 1019.1
20260831150011 30 88 1.6 6.4 0.00 1.91 0.00 100 1019.2
20260831145507 31 123 0.0 4.8 0.00 1.91 0.00 100 1019.3
20260831145007 30 336 0.0 6.4 0.00 1.91 0.00 100 1019.3
20260831144505 30 76 0.0 12.9 0.00 2.03 0.00 100 1019.2
20260831144004 30 5 3.2 12.9 0.00 2.03 0.00 100 1019.3
20260831143504 30 16 1.6 9.7 0.00 2.03 0.00 100 1019.3
20260831143001 30 360 3.2 9.7 0.00 2.03 0.00 100 1019.2
20260831142503 29 342 0.0 8.0 0.00 2.03 0.00 100 1019.3
20260831142101 29 5 0.0 6.4 0.00 2.03 0.00 100 1019.2
20260831141615 29 61 0.0 9.7 0.00 2.03 0.00 100 1019.2
20260831141503 29 57 1.6 9.7 0.00 2.03 0.00 100 1019.2
20260831141058 29 17 3.2 9.7 0.00 2.03 0.00 100 1019.1
20260831140558 30 9 1.6 6.4 0.00 2.03 0.00 100 1019.0
20260831140057 29 97 0.0 4.8 0.00 2.03 0.00 100 1018.9
20260831135556 29 94 0.0 4.8 0.00 2.03 0.00 100 1018.9
20260831135058 29 328 0.0 6.4 0.00 2.03 0.00 100 1018.8
20260831134602 29 311 0.0 6.4 0.00 2.06 0.00 100 1018.7
20260831134054 28 338 0.0 6.4 0.00 2.06 0.00 100 1018.7
20260831133551 28 17 1.6 6.4 0.00 2.06 0.00 100 1018.7
20260831133049 28 360 0.0 4.8 0.00 2.06 0.00 100 1018.6
20260831132549 28 5 0.0 6.4 0.00 2.06 0.00 100 1018.5
20260831132048 28 329 1.6 6.4 0.00 2.06 0.00 100 1018.5
20260831131547 28 350 0.0 0.0 0.00 2.06 0.00 100 1018.5
20260831131047 28 10 0.0 0.0 0.00 2.06 0.00 100 1018.6
20260831130545 28 355 0.0 0.0 0.00 2.06 0.00 100 1018.5
20260831130053 27 346 0.0 0.0 0.00 2.06 0.00 100 1018.6
20260831125544 27 346 0.0 0.0 0.00 2.06 0.00 100 1018.6
20260831125044 27 346 0.0 0.0 0.00 2.06 0.00 100 1018.6
20260831124543 27 346 0.0 0.0 0.00 2.06 0.00 100 1018.6
20260831124041 27 344 0.0 0.0 0.00 2.06 0.00 100 1018.6
20260831123540 26 350 0.0 0.0 0.00 2.06 0.00 100 1018.6
20260831123041 26 344 0.0 0.0 0.00 2.06 0.00 100 1018.5
20260831122541 26 330 0.0 4.8 0.00 2.06 0.00 100 1018.4
20260831122039 26 332 1.6 4.8 0.00 2.06 0.00 100 1018.4
20260831121536 26 65 0.0 0.0 0.00 2.06 0.00 100 1018.3
20260831121036 26 65 0.0 0.0 0.00 2.06 0.00 100 1018.2
20260831120536 26 65 0.0 0.0 0.00 2.06 0.00 100 1018.2
20260831120036 26 65 0.0 0.0 0.00 2.06 0.00 100 1018.0
20260831115535 26 65 0.0 0.0 0.00 2.06 0.00 100 1017.9
20260831115035 25 65 0.0 0.0 0.00 2.06 0.00 100 1017.8
20260831114539 25 65 0.0 0.0 0.00 2.06 0.00 100 1017.8
20260831114038 25 65 0.0 0.0 0.00 2.06 0.00 100 1017.7
20260831113537 25 65 0.0 0.0 0.00 2.06 0.00 100 1017.7
20260831113038 25 65 0.0 0.0 0.00 2.06 0.00 100 1017.6
20260831112538 25 65 0.0 0.0 0.00 2.06 0.00 100 1017.6
20260831112034 25 65 0.0 0.0 0.00 2.06 0.00 100 1017.6
20260831111533 25 65 0.0 0.0 0.00 2.06 0.00 100 1017.5
20260831111032 25 65 0.0 0.0 0.00 2.06 0.00 100 1017.5
20260831110534 25 65 0.0 0.0 0.00 2.06 0.00 100 1017.4
20260831110034 25 65 0.0 0.0 0.00 2.06 0.00 100 1017.5
20260831105533 25 65 0.0 0.0 0.00 2.06 0.00 100 1017.3
20260831105034 25 65 0.0 0.0 0.00 2.06 0.00 100 1017.4
20260831104533 25 65 0.0 0.0 0.00 2.06 0.00 100 1017.4
20260831104032 25 65 0.0 0.0 0.00 2.06 0.00 100 1017.2
20260831103531 25 65 0.0 0.0 0.00 2.06 0.00 100 1017.3
20260831103031 25 65 0.0 0.0 0.00 2.06 0.00 100 1017.2
20260831102531 25 65 0.0 1.6 0.00 2.06 0.00 100 1017.2
20260831102033 25 65 0.0 1.6 0.00 2.06 0.00 100 1017.3
20260831101531 25 65 0.0 0.0 0.00 2.06 0.00 100 1017.2
20260831101034 25 65 0.0 0.0 0.00 2.06 0.00 100 1017.1
20260831100530 25 65 0.0 4.8 0.00 2.06 0.00 100 1017.1
20260831100030 25 65 0.0 4.8 0.00 2.06 0.00 100 1017.0
20260831095532 25 155 0.0 0.0 0.00 2.06 0.00 100 1017.0
20260831095031 25 155 0.0 0.0 0.00 2.06 0.00 100 1017.0
20260831094530 25 155 0.0 0.0 0.00 2.06 0.00 100 1017.0
20260831094030 25 155 0.0 0.0 0.00 2.06 0.00 100 1017.1
20260831093533 25 155 0.0 0.0 0.00 2.06 0.00 100 1017.0
20260831093030 25 155 0.0 0.0 0.00 2.06 0.00 100 1016.9
20260831092529 25 155 0.0 0.0 0.00 2.06 0.00 100 1017.0
20260831092031 25 155 0.0 0.0 0.00 2.06 0.00 100 1016.9
20260831091528 25 155 0.0 0.0 0.00 2.06 0.00 100 1017.0
20260831091031 25 155 0.0 0.0 0.00 2.06 0.00 100 1017.0
20260831090528 25 155 0.0 0.0 0.00 2.06 0.00 100 1017.1
20260831090028 25 155 0.0 0.0 0.00 2.06 0.00 100 1017.2
20260831085526 25 155 0.0 0.0 0.00 2.06 0.00 100 1017.2
20260831085030 25 155 0.0 0.0 0.00 2.06 0.00 100 1017.3
20260831084527 25 155 0.0 0.0 0.00 2.06 0.00 100 1017.3
20260831084026 25 155 0.0 0.0 0.00 2.06 0.00 100 1017.4
20260831083526 25 155 0.0 0.0 0.00 2.06 0.00 100 1017.4
20260831083026 25 155 0.0 0.0 0.00 2.06 0.00 100 1017.4
20260831082526 25 155 0.0 0.0 0.00 2.06 0.00 100 1017.3
20260831082026 25 155 0.0 0.0 0.00 2.06 0.00 100 1017.4
20260831081525 25 155 0.0 0.0 0.00 2.06 0.00 100 1017.3
20260831081025 25 155 0.0 0.0 0.00 2.06 0.00 100 1017.3
20260831080524 25 155 0.0 0.0 0.00 2.06 0.00 100 1017.3
20260831080124 25 155 0.0 0.0 0.00 2.06 0.00 100 1017.3
20260831075523 25 155 0.0 0.0 0.00 2.06 0.00 100 1017.3
20260831075023 25 156 0.0 0.0 0.00 2.06 0.00 100 1017.3
20260831074524 25 157 0.0 0.0 0.00 2.06 0.00 100 1017.5
20260831074023 25 157 0.0 0.0 0.00 2.06 0.00 100 1017.4
20260831073531 25 157 0.0 0.0 0.00 2.06 0.00 100 1017.4
20260831073027 25 157 0.0 0.0 0.00 2.06 0.00 100 1017.4
20260831072523 25 157 0.0 0.0 0.00 2.06 0.00 100 1017.4
20260831072023 25 157 0.0 0.0 0.00 2.06 0.00 100 1017.5
20260831071521 25 157 0.0 0.0 0.00 2.06 0.00 100 1017.5
20260831071021 25 157 0.0 0.0 0.00 2.06 0.00 100 1017.6
20260831070523 25 157 0.0 0.0 0.00 2.06 0.00 100 1017.5
20260831070028 25 159 0.0 0.0 0.00 2.06 0.00 100 1017.7
20260831065521 25 159 0.0 0.0 0.00 2.06 0.00 100 1017.7
20260831065024 25 159 0.0 0.0 0.00 2.06 0.00 100 1017.5
20260831064521 25 163 0.0 0.0 0.00 2.06 0.00 100 1017.5
20260831064020 25 163 0.0 0.0 0.00 2.06 0.00 100 1017.4
20260831063520 25 163 0.0 0.0 0.00 2.06 0.00 100 1017.5
20260831063019 25 163 0.0 0.0 0.00 2.06 0.00 100 1017.5
20260831062520 25 163 0.0 0.0 0.00 2.06 0.00 100 1017.5
20260831062020 25 163 0.0 0.0 0.00 2.06 0.00 100 1017.5
20260831061518 25 163 0.0 0.0 0.00 2.06 0.00 100 1017.6
20260831061019 25 163 0.0 3.2 0.00 2.06 0.00 100 1017.7
20260831060517 25 163 0.0 3.2 0.00 2.06 0.00 100 1017.8
20260831060016 25 163 0.0 4.8 0.00 2.06 0.00 100 1017.9
20260831055516 25 163 0.0 8.0 0.00 2.06 0.00 100 1018.1
20260831055015 25 163 3.2 8.0 0.00 2.06 0.00 100 1018.1
20260831054515 25 182 3.2 9.7 0.00 2.06 0.00 100 1018.2
20260831054017 25 171 4.8 11.3 0.00 2.06 0.00 100 1018.3
20260831053513 26 172 4.8 20.9 0.00 2.06 0.00 100 1018.3
20260831053012 26 142 9.7 20.9 0.00 2.06 0.00 100 1018.3
20260831052511 26 169 1.6 8.0 0.00 2.06 0.00 100 1018.3
20260831052010 26 165 3.2 8.0 0.00 2.06 0.00 100 1018.4
20260831051522 25 109 1.6 6.4 0.00 2.06 0.00 100 1018.6
20260831051009 25 106 0.0 9.7 0.00 2.06 0.00 100 1018.6
20260831050509 25 104 3.2 9.7 0.00 2.06 0.00 100 1018.5
20260831050009 26 130 1.6 12.9 0.00 2.06 0.00 100 1018.6
20260831045509 26 130 3.2 12.9 0.00 2.06 0.00 100 1018.7
20260831045009 26 90 0.0 0.0 0.00 2.06 0.00 100 1018.7
20260831044508 26 13 0.0 0.0 0.00 2.06 0.00 100 1018.6
20260831044008 25 12 0.0 0.0 0.00 2.06 0.00 100 1018.6
20260831043507 25 12 0.0 0.0 0.00 2.06 0.00 100 1018.7
20260831043008 26 12 0.0 0.0 0.00 2.06 0.00 100 1018.6
20260831042507 25 12 0.0 0.0 0.00 2.06 0.00 100 1018.6
20260831042007 26 12 0.0 0.0 0.00 2.06 0.00 100 1018.5
20260831041509 26 12 0.0 0.0 0.00 2.06 0.00 100 1018.7
20260831041008 26 12 0.0 0.0 0.00 2.06 0.00 100 1018.8
20260831040505 26 11 0.0 0.0 0.00 2.06 0.00 100 1018.7
20260831040005 26 12 0.0 0.0 0.00 2.06 0.00 100 1018.7
20260831035506 26 12 0.0 0.0 0.00 2.06 0.00 100 1018.7
20260831035004 26 12 0.0 0.0 0.00 2.06 0.00 100 1018.9
20260831034505 26 12 0.0 0.0 0.00 2.06 2.06 100 1018.9
20260831034003 26 12 0.0 0.0 0.00 2.06 2.06 100 1018.9
20260831033503 26 12 0.0 0.0 0.00 2.06 2.06 100 1018.9
20260831033004 26 12 0.0 0.0 0.00 2.06 2.06 100 1018.9
20260831032503 26 12 0.0 0.0 0.00 2.06 2.06 100 1018.9
20260831032002 26 12 0.0 0.0 0.00 2.06 2.06 100 1018.9
20260831031502 26 12 0.0 0.0 0.00 2.06 2.06 100 1018.9
20260831031003 26 12 0.0 0.0 0.00 2.06 2.06 100 1018.8
20260831030505 26 12 0.0 0.0 0.00 2.06 2.06 100 1018.9
20260831030002 26 12 0.0 0.0 0.00 2.06 2.06 100 1018.8
20260831025502 26 12 0.0 0.0 0.00 2.06 2.06 100 1018.8
20260831025002 26 11 0.0 0.0 0.00 2.06 2.06 100 1018.7
20260831024502 26 11 0.0 3.2 0.00 2.06 2.06 100 1018.7
20260831024002 26 11 0.0 3.2 0.00 2.06 2.06 100 1018.7
20260831023502 26 12 0.0 4.8 0.00 2.06 2.06 100 1018.7
20260831023001 26 12 0.0 4.8 0.00 2.06 2.06 100 1018.7
20260831022504 26 11 1.6 4.8 0.00 2.06 2.06 100 1018.6
20260831022001 26 12 0.0 3.2 0.00 2.06 2.06 100 1018.6
20260831021603 26 12 0.0 3.2 0.00 2.06 2.06 100 1018.6
20260831021100 26 12 0.0 4.8 0.00 2.06 2.06 100 1018.7
20260831021004 26 12 0.0 4.8 0.00 2.06 2.06 100 1018.7
20260831020600 26 12 1.6 6.4 0.00 2.06 2.06 100 1018.7
20260831015600 26 5 0.0 6.4 0.00 2.06 2.06 100 1018.6
20260831015100 26 355 0.0 6.4 0.00 2.06 2.06 100 1018.6
20260831014610 26 355 0.0 6.4 0.00 2.06 2.06 100 1018.7
20260831014100 26 15 1.6 6.4 0.00 2.06 2.06 100 1018.7
20260831013600 26 17 1.6 6.4 0.00 2.06 2.06 100 1018.7
20260831013113 26 11 0.0 4.8 0.00 2.06 2.06 100 1018.8
20260831012600 26 14 0.0 0.0 0.00 2.06 2.06 100 1018.9
20260831012100 26 15 0.0 0.0 0.00 2.06 2.06 100 1018.8
20260831011604 26 28 0.0 0.0 0.00 2.06 2.06 100 1018.9
20260831011058 26 33 0.0 3.2 0.00 2.06 2.06 100 1018.8
20260831010559 26 38 0.0 3.2 0.00 2.06 2.06 100 1018.7
20260831010058 26 38 0.0 4.8 0.00 2.06 2.06 100 1018.7
20260831005558 26 38 1.6 4.8 0.00 2.06 2.06 100 1018.7
20260831005057 26 79 0.0 3.2 0.00 2.06 2.06 100 1018.8
20260831004558 26 80 0.0 3.2 0.00 2.06 2.06 100 1018.7
20260831004058 26 77 0.0 6.4 0.00 2.06 2.06 100 1018.7
20260831003558 26 55 0.0 6.4 0.00 2.06 2.06 100 1018.7
20260831003059 26 110 0.0 3.2 0.00 2.06 2.06 100 1018.5
20260831002559 26 111 0.0 4.8 0.00 2.06 2.06 100 1018.6
20260831002058 26 113 0.0 4.8 0.00 2.06 2.06 100 1018.6
20260831001557 26 119 0.0 4.8 0.00 2.06 2.06 100 1018.6
20260831001056 26 120 0.0 1.6 0.00 2.06 2.06 100 1018.6
20260831000556 26 40 0.0 6.4 0.00 2.06 2.06 100 1018.3
20260831000056 26 26 1.6 6.4 0.00 2.06 2.06 100 1018.4
20260830235555 26 101 0.0 6.4 0.00 2.06 2.06 100 1018.5
20260830235057 27 104 0.0 3.2 0.00 2.06 2.06 100 1018.5
20260830234604 27 104 0.0 6.4 0.00 2.06 2.06 100 1018.4
20260830234059 27 105 0.0 6.4 0.00 2.06 2.06 100 1018.3
20260830233556 27 107 1.6 6.4 0.00 2.06 2.06 100 1018.4
20260830233055 27 105 0.0 4.8 0.00 2.06 2.06 100 1018.3
20260830232555 27 96 0.0 4.8 0.00 2.06 2.06 100 1018.1
20260830232057 27 74 0.0 4.8 0.00 2.06 2.06 100 1018.0
20260830231555 27 103 0.0 3.2 0.00 2.06 2.06 100 1017.9
20260830231054 27 105 0.0 3.2 0.00 2.06 2.06 100 1017.8
20260830230554 27 105 0.0 4.8 0.00 2.06 2.06 100 1017.8
20260830230055 27 105 1.6 4.8 0.00 2.06 2.06 100 1017.6
20260830225554 27 97 1.6 4.8 0.00 2.06 2.06 100 1017.6
20260830225054 27 90 0.0 4.8 0.00 2.06 2.06 100 1017.8
20260830224556 27 91 0.0 4.8 0.00 2.08 2.06 100 1017.8
20260830224054 27 48 0.0 4.8 0.00 2.08 2.06 100 1017.9
20260830223556 27 81 0.0 4.8 0.00 2.08 2.06 100 1018.0
20260830223055 27 81 0.0 4.8 0.00 2.08 2.06 100 1018.0
20260830222556 27 81 1.6 4.8 0.00 2.08 2.06 100 1018.1
20260830222053 27 61 0.0 6.4 0.00 2.08 2.06 100 1018.1
20260830221553 27 93 0.0 6.4 0.00 2.08 2.06 100 1018.1
20260830221052 27 96 0.0 4.8 0.00 2.08 2.06 100 1018.2
20260830220552 27 96 1.6 4.8 0.00 2.08 2.06 100 1018.1
20260830220053 27 83 0.0 4.8 0.00 2.08 2.06 100 1018.1
20260830215553 27 54 1.6 8.0 0.00 2.08 2.06 100 1018.1
20260830215051 28 69 0.0 4.8 0.00 2.08 2.06 100 1018.1
20260830214551 28 85 0.0 4.8 0.00 2.11 2.06 100 1018.1
20260830214053 28 17 0.0 4.8 0.00 2.11 2.06 100 1018.0
20260830213553 28 99 1.6 6.4 0.00 2.11 2.06 100 1017.8
20260830213054 28 101 1.6 6.4 0.00 2.11 2.06 100 1017.7
20260830212551 28 26 1.6 11.3 0.00 2.11 2.06 100 1017.8
20260830212051 28 98 3.2 11.3 0.00 2.11 2.06 100 1017.9
20260830211552 29 117 1.6 11.3 0.00 2.11 2.06 100 1017.9
20260830211050 28 113 4.8 11.3 0.00 2.11 2.06 100 1017.9
20260830210551 29 131 3.2 11.3 0.00 2.11 2.06 100 1018.0
20260830210053 29 117 3.2 11.3 0.00 2.11 2.06 100 1017.9
20260830205550 29 105 4.8 11.3 0.00 2.11 2.06 100 1017.9
20260830205051 29 141 4.8 11.3 0.00 2.11 2.06 100 1017.9
20260830204550 29 131 3.2 12.9 0.00 2.36 2.06 100 1017.9
20260830204053 29 130 1.6 12.9 0.00 2.36 2.06 100 1017.8
20260830203550 29 116 0.0 6.4 0.00 2.36 2.06 100 1017.9
20260830203109 29 105 0.0 4.8 0.00 2.36 2.06 100 1017.8
20260830202551 28 139 0.0 6.4 0.00 2.36 2.06 100 1018.1
20260830202049 28 139 1.6 11.3 0.00 2.36 2.06 100 1018.1
20260830201550 28 140 4.8 11.3 0.00 2.36 2.06 100 1018.1
20260830201048 28 141 3.2 12.9 0.00 2.36 2.06 100 1018.2
20260830200651 28 153 4.8 12.9 0.00 2.36 2.06 100 1018.2
20260830200049 28 173 3.2 8.0 0.00 2.36 2.06 100 1018.3
20260830195549 28 167 4.8 12.9 0.00 2.36 2.06 100 1018.3
20260830195048 28 149 4.8 12.9 0.00 2.36 2.06 100 1018.3
20260830194550 28 154 3.2 12.9 0.00 2.46 2.06 100 1018.3
20260830194048 28 148 4.8 11.3 0.00 2.46 2.06 100 1018.2
20260830193546 28 173 0.0 8.0 0.00 2.46 2.06 100 1018.3
20260830193047 28 190 1.6 6.4 0.00 2.46 2.06 100 1018.4
20260830192547 28 172 1.6 11.3 0.00 2.46 2.06 100 1018.5
20260830192046 28 167 3.2 11.3 0.00 2.46 2.06 100 1018.5
20260830191554 28 148 1.6 8.0 0.00 2.46 2.06 100 1018.5
20260830191046 27 138 0.0 4.8 0.00 2.46 2.06 100 1018.5
20260830190545 27 137 1.6 4.8 0.00 2.46 2.06 100 1018.4
20260830190046 28 134 0.0 1.6 0.00 2.46 2.06 100 1018.4
20260830185545 27 135 0.0 1.6 0.00 2.46 2.06 100 1018.4
20260830185046 27 135 0.0 3.2 0.00 2.46 2.06 100 1018.4
20260830184545 27 135 0.0 6.4 0.00 2.46 2.06 100 1018.6
20260830184045 27 58 0.0 8.0 0.00 2.46 2.06 100 1018.8
20260830183544 28 360 0.0 8.0 0.00 2.46 2.06 100 1018.8
20260830183048 28 98 0.0 8.0 0.00 2.46 2.06 100 1018.9
20260830182544 28 27 0.0 12.9 0.00 2.46 2.06 100 1019.0
20260830182044 28 355 4.8 12.9 0.00 2.46 2.06 100 1018.9
20260830181555 28 5 4.8 11.3 0.00 2.46 2.06 100 1019.1
20260830181044 28 83 0.0 12.9 0.00 2.46 2.06 100 1019.0
20260830180543 28 5 4.8 14.5 0.00 2.46 2.06 100 1019.1
20260830180045 27 15 4.8 14.5 0.00 2.46 2.06 100 1019.3
20260830175543 27 104 1.6 17.7 0.00 2.46 2.06 100 1019.4
20260830175043 27 342 6.4 17.7 0.00 2.46 2.06 100 1019.5
20260830174543 26 34 3.2 9.7 0.00 2.46 2.06 100 1019.8
20260830174045 27 102 3.2 9.7 0.00 2.46 2.06 100 1019.8
20260830173543 26 65 4.8 9.7 0.00 2.46 2.06 100 1019.8
20260830173101 26 99 1.6 12.9 0.00 2.46 2.06 100 1019.9
20260830172542 26 19 3.2 9.7 0.00 2.46 2.06 100 1019.9
20260830172042 26 52 1.6 14.5 0.00 2.46 2.06 100 1019.9
20260830171544 26 355 8.0 16.1 0.00 2.46 2.06 100 1020.0
20260830171041 26 344 4.8 12.9 0.00 2.46 2.06 100 1019.8
20260830170544 26 347 3.2 12.9 0.00 2.46 2.06 100 1019.7
20260830170041 26 312 4.8 14.5 0.00 2.46 2.06 100 1019.7
20260830165541 26 318 4.8 14.5 0.00 2.46 2.06 100 1019.7
20260830165040 25 333 3.2 16.1 0.00 2.46 2.06 100 1020.1
20260830164603 25 355 3.2 12.9 0.03 2.46 2.06 100 1020.6
20260830164040 25 36 1.6 9.7 0.03 2.46 2.06 100 1020.3